Theta_e
345 345 346 346 346 345 346 346 345 344 344 345 345 344 342 341 343 342 341 340 338 336 338 341 342 342 342 341 341 340 340 340 340 341 339 334 332 332 332 332 334 337 341 343 343 343 343 342 342 343 343 344 344 344 344 343 342 342 342 342 343 344 344 342 342 341 341 341 341 340 338 336 337 338 339 339 340 340 340 340 341 340 339 339 339
345 346 346 346 346 346 346 346 345 344 344 345 345 344 342 341 343 342 340 340 339 336 335 337 338 340 341 340 340 340 340 340 341 342 340 334 333 334 335 336 338 341 343 343 343 342 342 341 342 343 343 344 344 344 344 343 342 342 342 342 343 344 343 342 342 341 341 341 341 341 339 337 338 338 340 340 339 340 340 340 340 340 340 339 339
346 345 346 346 346 346 346 346 345 344 344 345 345 344 343 342 343 342 340 340 339 336 335 334 335 336 338 338 338 339 339 340 341 342 342 337 334 334 337 340 342 343 343 342 342 342 341 342 342 342 342 344 344 344 344 343 342 342 342 342 343 345 344 342 342 342 342 340 341 343 341 339 341 339 340 340 339 339 339 339 339 339 339 339 337
346 345 346 346 346 346 346 346 346 344 343 345 345 344 342 341 342 342 340 339 339 337 336 335 335 334 336 337 337 337 337 339 341 342 342 340 338 335 336 339 341 343 342 342 343 343 342 341 341 340 341 342 344 344 344 344 343 342 342 342 343 346 346 342 342 342 342 341 342 343 341 341 344 342 341 340 339 340 339 338 339 339 338 338 338
346 345 345 346 346 346 346 346 346 344 343 344 344 343 342 341 342 342 341 340 339 338 337 336 336 336 335 335 336 336 336 338 340 341 341 340 340 338 336 337 339 341 342 342 343 343 342 341 341 340 340 342 344 345 344 344 343 342 342 343 343 344 345 344 343 343 343 342 342 344 344 344 346 344 342 341 339 340 339 337 338 338 338 338 340
345 345 345 345 346 346 346 346 346 344 342 343 344 344 344 342 341 341 341 340 340 339 338 338 338 339 338 336 335 336 337 338 339 340 339 338 338 338 337 336 337 339 341 341 343 344 343 342 342 341 342 343 344 344 344 344 344 342 342 343 343 344 344 344 345 345 345 344 343 345 345 345 345 344 343 343 340 340 340 338 337 337 338 338 338
345 345 345 345 345 345 345 345 345 345 343 342 344 344 345 343 341 341 341 340 340 340 340 339 340 342 341 338 337 337 337 337 337 337 337 335 335 335 335 335 336 338 340 341 343 344 344 344 343 342 343 344 344 344 344 344 344 343 344 344 344 344 344 345 345 345 346 346 345 346 345 345 345 344 344 344 344 343 341 338 338 337 336 337 337
345 345 345 345 345 345 345 345 345 345 344 342 343 344 345 344 341 341 341 340 340 340 340 340 340 343 341 339 338 336 336 335 335 335 334 333 333 333 334 334 335 337 339 341 343 344 344 344 344 343 343 343 344 344 344 344 344 344 345 345 344 345 345 345 344 344 346 347 346 346 346 345 345 345 344 344 346 347 344 342 341 338 338 338 338
344 344 344 345 344 345 345 344 344 344 344 342 343 343 345 345 343 342 342 341 341 341 341 341 340 342 340 337 337 336 336 336 335 335 335 334 333 333 333 334 335 336 338 341 343 344 344 344 344 344 343 343 343 343 343 343 343 344 345 345 345 345 345 345 345 344 345 347 347 347 347 346 346 346 345 344 345 346 346 345 344 343 343 342 340
344 344 344 344 344 344 344 344 344 344 344 342 342 343 344 346 345 344 343 342 342 342 342 341 341 340 338 337 337 336 337 338 338 337 337 337 336 334 334 334 335 335 337 338 340 342 343 344 344 344 344 343 343 343 343 343 343 345 346 346 346 345 345 345 345 344 344 345 346 347 347 347 347 347 347 346 345 345 346 346 346 346 347 346 343
343 343 343 344 344 344 344 344 344 344 344 343 342 343 344 345 346 346 345 343 342 343 343 342 341 340 338 337 337 337 338 340 340 339 339 338 337 335 334 334 335 335 336 336 338 339 341 343 344 344 344 344 343 343 343 343 345 346 346 346 345 346 346 345 344 345 344 344 345 346 346 347 347 347 347 346 345 347 347 346 347 347 347 347 345
342 342 342 343 343 343 343 343 344 344 343 343 342 343 344 345 346 346 346 342 340 342 342 342 341 341 340 339 339 339 340 342 342 341 340 339 338 337 336 335 335 335 335 335 336 337 339 341 342 343 344 344 343 343 343 344 345 346 346 347 346 346 345 344 344 344 344 344 345 346 346 347 347 347 347 346 345 345 345 347 349 347 347 349 347
343 342 342 342 343 343 343 343 343 343 343 343 342 342 344 344 345 346 346 343 339 339 340 340 341 341 341 340 340 341 342 343 343 343 342 341 340 340 340 338 337 336 335 335 335 336 337 339 340 342 343 343 343 342 343 344 344 345 347 348 348 347 344 343 343 344 344 344 345 346 346 348 349 347 347 348 347 346 345 349 350 348 348 350 349
343 342 341 342 342 342 343 342 343 343 342 342 342 341 343 344 345 345 346 345 343 342 341 339 339 339 340 341 340 341 342 344 344 344 343 343 342 342 342 342 340 338 336 335 336 336 336 337 338 341 343 343 343 342 343 343 343 345 348 349 349 347 344 342 343 343 343 343 344 345 346 349 348 346 347 348 349 349 349 351 351 350 350 351 350
344 342 342 341 342 342 343 342 342 342 342 342 341 341 342 343 344 344 345 346 346 346 345 342 339 338 338 340 340 341 342 343 344 344 344 344 344 343 343 344 344 342 339 336 336 337 336 337 337 339 341 342 342 343 343 344 344 345 347 348 348 347 344 343 344 344 343 343 343 343 344 347 347 346 348 349 349 350 350 351 351 351 352 352 352
344 342 341 341 342 342 342 342 342 342 343 342 341 340 341 342 343 344 344 345 346 346 347 345 343 340 338 338 339 340 341 342 343 344 345 345 345 345 345 345 346 346 343 338 336 337 336 337 337 338 341 342 342 343 343 344 345 345 345 345 346 347 346 345 346 345 344 343 343 342 342 344 345 345 347 349 348 349 349 350 349 350 352 353 354
346 343 342 341 341 341 342 342 342 342 342 342 341 341 340 340 342 343 343 344 345 346 346 347 347 344 341 338 338 339 340 341 342 343 345 346 346 347 347 346 346 348 347 343 339 338 337 337 337 339 341 342 342 343 343 344 344 344 344 344 345 346 346 345 346 347 346 345 344 344 342 342 343 343 346 349 348 348 349 349 350 350 350 352 354
347 345 343 341 340 341 341 341 341 342 342 341 341 341 340 339 340 342 342 343 343 345 345 346 347 347 345 340 337 338 339 339 341 342 345 347 347 347 347 347 348 349 349 346 343 342 339 337 338 341 342 342 341 341 342 343 344 344 345 345 345 345 345 345 346 347 347 346 345 344 343 343 342 342 345 348 349 348 349 349 350 351 350 352 353
349 348 346 343 341 341 341 341 341 342 342 341 341 341 341 339 339 341 342 342 342 344 345 346 346 347 346 343 339 337 338 339 340 342 345 347 347 347 347 347 348 349 349 348 346 346 343 339 340 343 343 343 341 340 341 342 343 344 345 345 346 345 345 345 345 345 346 345 344 343 342 342 342 342 343 345 346 347 349 349 350 350 350 351 352
349 349 348 345 342 340 340 341 341 341 342 341 340 341 341 339 339 340 341 342 343 344 344 345 346 347 347 346 341 338 337 338 339 342 345 346 346 347 347 347 348 349 349 348 348 348 347 344 343 343 345 345 343 341 341 342 343 344 345 345 345 345 344 343 343 343 343 343 343 343 343 342 343 342 342 343 345 345 347 349 350 350 350 351 352
348 349 349 348 344 341 340 339 340 340 340 340 341 341 341 340 339 340 341 342 342 343 344 345 345 346 347 346 343 339 337 337 338 340 343 344 345 346 347 347 347 347 348 348 348 348 348 347 346 345 345 346 346 344 342 343 344 345 345 344 344 344 344 344 343 343 342 343 343 343 343 343 343 343 343 344 347 348 348 349 350 350 350 350 350
347 348 349 349 347 344 341 339 339 339 339 340 341 341 341 341 340 341 341 342 342 343 344 344 345 345 345 345 343 341 339 338 337 338 341 343 343 344 345 346 346 346 347 348 348 348 348 348 348 347 346 346 347 346 345 346 346 347 346 346 345 345 344 344 344 344 343 343 343 343 343 343 344 344 342 344 349 352 352 352 352 351 350 348 347
346 348 348 349 349 346 342 339 338 339 339 339 340 341 341 342 342 343 343 343 344 344 344 344 345 346 345 344 343 342 341 340 339 338 340 342 342 342 343 345 345 345 345 346 347 347 347 347 347 347 346 346 347 348 349 348 348 349 348 348 347 347 346 345 345 344 343 343 344 345 344 345 347 346 343 344 347 350 351 351 353 351 349 349 348
346 347 349 348 348 346 343 339 338 339 339 339 340 341 342 342 342 343 343 343 343 344 344 344 345 346 347 346 345 343 342 341 340 339 339 341 341 341 342 344 344 345 345 345 345 346 346 346 346 346 346 346 346 348 349 350 350 349 349 349 349 348 347 346 345 345 344 344 344 345 345 347 348 347 345 345 346 347 349 349 351 351 350 351 352
347 347 348 348 348 346 343 341 340 339 338 340 340 341 342 343 343 343 342 343 343 343 344 344 345 346 348 348 348 346 344 343 342 341 339 340 341 341 341 341 343 344 345 345 345 345 346 345 345 344 345 346 346 347 348 349 349 349 349 349 349 348 348 348 347 346 344 344 344 345 345 347 348 346 345 346 346 347 349 350 352 353 352 353 353
348 347 347 348 348 347 346 346 346 344 342 342 341 341 342 342 343 344 344 344 345 344 344 345 345 346 347 348 350 349 348 345 343 342 341 340 340 341 341 341 342 344 346 345 345 345 345 344 343 343 345 347 347 347 347 348 349 350 349 349 348 347 347 348 349 347 345 345 345 344 344 345 346 346 345 346 346 347 350 352 353 353 353 353 353
347 347 347 347 348 347 347 348 348 347 347 347 346 344 343 343 343 344 344 345 345 345 344 344 343 344 345 346 348 351 351 349 346 345 343 342 342 341 341 341 341 343 345 345 345 344 344 344 343 344 347 348 348 347 347 348 349 350 350 350 349 348 347 347 348 349 348 348 348 347 346 346 346 346 346 347 348 348 351 353 353 353 353 352 353
346 347 347 347 347 347 348 347 347 347 347 348 349 348 347 347 346 345 344 344 344 344 344 343 342 342 344 344 345 349 351 350 349 348 346 344 343 343 342 341 341 342 344 345 344 344 344 344 345 347 349 350 349 347 347 347 348 349 350 350 350 350 349 349 349 349 349 349 349 349 349 349 348 347 347 349 351 352 353 354 353 353 352 352 353
345 346 346 346 346 347 347 347 347 347 347 348 348 348 349 348 348 347 345 343 344 344 344 343 343 343 343 345 344 345 347 348 349 349 349 346 344 343 343 342 341 341 343 344 344 344 344 345 347 349 351 351 350 349 347 347 348 349 349 350 350 350 351 351 350 350 350 350 350 350 350 350 349 348 349 350 352 352 353 353 352 351 352 352 353
344 344 345 345 345 346 346 346 347 347 347 348 348 348 349 348 348 347 346 345 346 346 345 344 344 344 343 345 345 344 345 346 347 349 350 349 346 344 344 343 342 341 342 343 343 343 345 346 348 350 351 352 352 350 349 349 349 349 349 349 349 350 350 351 351 351 351 351 351 351 350 349 349 349 351 351 351 351 352 352 352 351 352 353 353
342 342 343 343 344 344 345 346 346 347 347 348 348 348 348 348 348 348 347 347 348 348 346 345 345 345 346 348 348 347 347 347 347 347 349 350 348 346 345 343 342 342 341 341 342 342 343 345 347 350 351 351 351 351 350 350 351 351 350 350 349 349 350 350 351 351 350 351 351 351 351 350 349 349 349 350 350 351 352 353 352 353 353 353 353
340 340 340 341 341 342 343 344 344 345 346 346 347 348 348 348 348 348 348 348 348 348 348 347 346 346 347 347 348 347 347 347 347 347 348 349 347 347 346 344 342 342 342 341 341 341 341 342 344 348 350 351 351 350 351 351 351 351 351 351 350 350 350 350 350 350 350 349 350 350 351 352 351 349 349 351 351 351 353 354 353 353 353 353 352
338 338 339 339 339 340 341 342 342 343 344 345 346 346 347 348 348 348 349 348 348 348 348 348 347 347 347 346 345 346 346 346 346 346 348 348 346 346 347 346 343 342 342 341 340 340 340 340 341 344 348 350 350 350 350 350 350 351 351 351 352 351 351 351 351 350 350 349 349 350 350 351 351 349 349 350 348 346 349 351 353 353 352 352 351
336 337 337 337 337 338 339 340 341 342 343 344 345 345 346 347 348 348 349 349 349 349 348 348 348 348 348 348 348 349 350 348 347 347 348 348 347 344 346 348 348 346 344 342 341 340 340 340 339 340 344 347 349 349 350 349 349 350 350 350 351 352 352 351 351 350 350 350 349 350 349 350 350 349 348 348 346 344 345 347 350 352 352 352 351
335 335 335 334 334 334 336 338 340 341 342 343 344 345 346 346 347 348 348 348 349 349 349 349 350 350 349 349 350 351 351 351 349 347 346 347 349 347 344 346 347 349 349 348 347 346 345 344 343 342 343 346 349 349 349 350 349 349 349 349 350 352 352 351 350 349 349 349 349 350 350 350 350 349 349 348 348 348 348 348 349 350 350 350 350
334 334 334 333 331 331 332 334 336 338 340 341 342 343 345 346 346 346 347 347 347 347 347 348 348 349 350 350 349 350 351 351 350 348 348 349 351 350 348 346 347 349 350 350 351 350 349 348 347 345 344 345 347 348 349 350 350 349 348 348 349 351 352 352 351 350 349 349 349 349 350 350 350 350 349 350 350 351 351 350 349 348 348 348 348
333 333 333 332 330 327 327 330 334 336 337 339 339 341 343 344 344 344 345 346 346 345 345 345 346 347 348 348 349 349 349 349 349 349 349 349 350 350 350 350 349 349 349 348 349 349 349 348 348 348 347 346 347 349 349 348 349 349 349 348 348 349 350 352 352 351 350 349 349 349 349 349 349 349 349 350 350 352 351 349 348 347 347 346 346
332 332 332 330 329 325 322 325 331 334 336 337 338 339 341 342 342 342 342 343 343 344 344 344 344 345 345 346 346 346 346 347 347 347 347 347 347 348 350 350 349 349 348 347 348 348 348 348 349 349 348 347 347 348 348 347 348 350 350 349 348 350 350 351 351 351 350 350 349 349 349 349 349 349 349 349 350 351 351 349 348 347 346 345 344
329 330 330 329 328 323 319 321 326 330 334 336 336 337 339 339 340 340 340 340 340 341 342 342 342 343 344 344 344 344 344 344 345 346 346 346 346 346 347 348 348 348 348 346 347 348 347 348 349 348 348 348 347 346 344 343 345 349 350 349 349 349 350 350 350 350 350 350 350 350 349 349 349 348 349 349 349 350 350 350 349 348 345 344 344
326 327 328 327 325 320 317 319 322 325 329 332 334 336 336 336 337 337 337 337 337 338 339 340 340 341 341 342 342 342 342 343 343 344 343 344 345 344 344 344 345 346 347 347 347 348 347 347 348 347 348 348 346 342 339 338 342 347 350 350 350 350 350 350 350 350 350 350 350 349 349 349 349 349 349 349 349 349 349 350 350 349 346 344 345
322 323 324 324 321 318 317 319 321 322 324 325 327 330 332 334 334 334 333 333 334 334 335 336 337 338 338 339 339 340 340 340 341 341 341 341 342 342 343 343 343 344 344 344 345 345 344 345 345 345 347 347 346 343 342 342 344 346 347 348 349 350 350 350 350 350 350 350 350 350 350 349 349 349 349 349 349 349 349 349 349 349 348 347 346
317 317 318 318 316 314 314 317 319 320 321 321 321 321 323 327 329 330 329 329 330 331 332 332 333 334 335 336 336 337 337 337 337 338 339 339 340 340 341 342 342 343 343 344 344 343 343 344 344 345 345 345 346 345 345 345 345 345 346 346 346 348 348 348 348 348 349 350 350 350 350 349 349 349 349 350 349 348 348 348 348 349 349 347 346
314 314 313 313 312 312 312 313 313 314 316 319 320 320 319 321 323 325 325 325 326 327 328 328 328 329 331 332 333 334 334 334 334 335 335 336 337 338 339 340 341 342 343 343 344 344 344 344 344 345 345 345 345 345 345 345 345 345 346 346 346 347 347 347 348 348 348 348 349 349 348 348 349 349 349 349 349 348 348 347 347 349 349 346 344
315 315 314 313 313 313 312 311 311 311 312 314 316 318 318 319 321 322 322 322 322 322 322 322 324 325 326 327 328 328 328 328 328 329 330 331 332 332 333 335 337 339 341 342 343 343 343 343 343 343 344 344 343 344 344 344 344 344 344 344 344 345 345 345 346 346 346 346 346 347 347 347 347 347 348 348 348 348 347 347 347 348 348 347 346
315 314 314 313 313 312 311 311 310 310 309 310 312 314 315 316 317 317 317 318 318 318 319 320 321 322 323 323 323 322 321 320 321 321 322 324 325 325 326 328 332 336 339 340 342 342 341 341 342 341 341 341 341 340 340 340 340 340 340 340 340 340 340 341 341 341 342 342 343 343 343 344 344 344 345 347 347 347 347 347 347 347 347 348 348
315 314 314 313 313 313 313 313 312 311 310 308 309 311 312 313 313 313 313 313 313 314 316 318 319 321 322 322 321 319 318 317 317 317 317 318 319 321 324 328 331 336 338 338 338 338 338 338 338 337 337 337 336 335 334 334 333 332 332 333 334 334 333 333 333 334 336 338 339 341 341 341 342 342 343 344 345 346 347 347 347 347 346 347 347
317 317 316 315 315 315 316 317 317 317 315 311 308 308 310 311 312 312 312 311 310 311 313 316 318 319 319 319 319 319 317 317 317 316 316 316 318 320 326 331 334 335 336 335 335 336 335 335 335 334 333 332 331 330 330 329 328 326 325 325 325 327 329 329 327 326 327 328 330 332 333 334 338 341 341 343 344 345 346 347 346 345 346 348 348
319 320 319 319 319 319 319 319 320 320 319 316 312 308 307 308 310 312 311 311 310 310 312 314 316 317 318 319 320 320 319 317 316 315 314 314 315 318 323 330 334 335 335 334 333 333 332 332 332 332 332 332 331 331 330 330 328 325 323 320 317 317 322 326 327 323 319 318 321 321 321 325 335 340 340 340 342 343 344 344 343 342 344 346 346
320 322 323 323 323 323 322 322 321 321 321 319 316 310 306 305 307 309 310 311 311 311 312 313 314 315 317 319 321 321 320 318 316 316 315 314 314 315 318 322 326 329 330 331 332 331 331 331 332 333 333 332 331 330 329 328 328 326 323 321 317 313 312 318 325 326 319 314 315 317 317 322 331 336 337 336 337 337 338 339 339 338 339 341 342
319 323 324 324 324 324 324 323 323 322 321 321 319 315 309 306 306 306 307 309 311 312 313 313 313 313 316 319 320 321 321 319 317 316 317 317 316 316 316 317 318 319 320 322 325 326 327 328 330 329 327 323 321 321 320 320 321 321 318 316 315 312 309 310 317 323 321 315 312 316 323 328 331 332 334 334 334 334 335 334 334 335 337 339 340
321 323 324 324 324 325 324 324 323 323 322 322 322 320 315 311 309 308 306 306 308 310 312 312 311 311 313 315 317 318 319 318 317 315 316 317 318 318 319 318 317 317 317 316 315 316 317 318 318 318 315 313 312 312 311 311 312 312 311 310 309 309 308 306 308 313 317 316 313 313 320 329 333 334 334 336 336 336 336 335 334 336 338 338 337
Wind_Speed
17 17 17 16 15 13 12 10 9 10 10 9 11 10 11 12 12 13 14 15 15 16 17 17 18 18 17 17 17 17 16 16 15 14 15 15 16 17 17 17 16 14 12 11 9 8 7 7 6 5 4 5 5 5 5 5 6 5 4 3 3 4 6 6 5 3 1 2 3 4 2 2 2 1 2 3 3 3 3 2 2 1 1 1 0
17 18 19 18 17 16 14 12 11 12 12 10 11 10 11 12 12 13 14 15 15 16 16 16 17 18 18 18 18 17 16 15 14 13 14 16 16 16 16 15 14 13 11 10 9 8 7 6 5 4 4 5 5 5 5 5 6 6 5 4 3 4 6 6 5 4 2 2 3 5 3 1 1 2 3 3 3 3 3 2 1 0 0 1 2
19 19 20 20 20 18 17 14 13 13 13 11 10 11 11 12 13 14 14 15 15 16 16 15 15 16 16 17 17 16 15 14 14 13 13 15 16 16 15 14 12 11 10 10 9 8 7 6 5 5 4 4 4 4 4 5 6 6 5 4 3 4 6 6 4 3 2 2 3 4 4 3 2 2 3 3 3 4 3 2 1 1 2 3 3
22 21 20 21 21 20 19 17 15 15 15 12 11 12 12 13 13 14 15 15 15 16 16 15 15 15 16 16 16 15 15 14 14 13 13 14 16 16 15 13 11 10 10 9 9 8 7 6 6 5 5 4 4 4 4 5 6 6 5 4 3 4 6 6 5 4 4 3 3 4 4 4 2 2 4 3 3 5 4 2 1 3 3 4 4
24 22 21 23 23 22 20 19 17 16 17 14 13 13 13 13 13 14 15 15 15 16 16 16 16 16 17 18 18 17 16 16 16 15 13 13 15 16 15 14 12 11 10 10 9 7 6 6 5 5 5 4 4 4 5 5 6 6 5 4 3 3 5 5 4 4 5 3 3 3 3 3 3 4 5 3 4 5 5 4 2 3 4 4 4
26 24 23 24 23 22 21 21 20 18 18 16 14 13 12 12 14 15 15 15 15 16 16 16 16 16 17 18 19 18 18 18 17 16 15 14 14 15 15 14 12 11 10 9 8 7 6 5 4 4 4 4 4 4 5 5 5 6 6 5 4 3 4 4 3 3 4 4 4 4 3 3 4 5 4 3 4 4 5 6 4 2 4 4 5
26 26 25 25 24 23 23 22 21 20 20 18 16 14 13 12 14 15 16 16 15 16 16 17 17 16 16 17 18 18 18 17 16 16 15 14 13 14 14 14 13 12 11 9 8 7 6 5 4 4 5 5 5 5 5 5 5 6 6 5 5 4 4 3 2 2 3 3 3 3 3 4 5 5 4 4 4 4 4 5 4 2 3 4 5
27 28 28 27 26 25 24 22 21 21 21 21 18 16 14 13 14 16 16 16 15 15 16 17 18 17 17 17 18 18 17 15 14 14 14 13 12 12 13 13 13 12 11 10 9 8 6 5 5 5 6 6 6 5 6 6 6 6 6 6 5 5 5 4 2 1 1 2 2 2 3 4 5 4 4 4 4 4 5 4 4 3 2 3 4
30 31 30 30 29 27 25 23 22 22 22 22 20 18 16 14 14 16 16 17 16 16 16 17 17 17 18 18 18 18 16 14 13 13 13 13 12 12 12 12 12 12 11 11 9 8 7 6 6 6 6 7 7 7 7 7 6 6 6 6 5 6 6 5 4 2 2 2 2 2 3 3 4 4 4 4 4 4 4 4 4 4 3 4 4
33 33 32 32 31 28 26 25 24 23 22 22 22 20 18 16 15 16 17 17 18 17 17 17 17 18 19 19 19 18 16 14 13 13 13 12 12 12 13 12 11 11 11 11 10 9 8 7 6 6 6 7 8 8 7 7 7 6 6 6 6 7 7 7 6 5 4 3 3 3 3 3 4 4 4 4 4 4 4 5 5 4 4 5 5
34 33 33 33 31 29 28 28 26 25 24 24 24 23 20 18 17 16 16 18 19 18 17 17 17 18 19 19 19 18 17 15 14 14 14 13 13 13 12 12 11 11 11 11 10 10 9 8 8 7 7 8 8 8 8 8 7 6 6 7 7 7 8 8 8 7 6 5 4 4 3 3 4 4 5 5 5 4 5 5 5 5 6 6 7
35 34 34 33 31 31 30 30 29 28 27 26 25 24 22 20 18 17 17 18 19 19 17 17 17 18 19 19 19 18 17 16 15 14 14 14 13 12 12 12 11 11 11 12 11 11 10 10 9 9 9 9 9 8 8 8 8 7 7 8 8 8 9 9 9 9 8 7 6 6 5 4 5 5 6 6 7 6 6 6 6 6 6 6 7
36 35 35 33 33 32 32 32 31 30 28 26 26 25 25 23 20 19 18 18 19 19 18 17 17 17 17 18 18 18 17 16 15 14 14 14 13 13 12 12 11 12 12 12 12 11 11 11 10 10 10 10 10 10 9 9 9 8 8 8 9 9 9 9 10 10 10 10 9 8 7 6 6 7 7 7 7 8 7 6 6 7 6 6 7
36 36 35 35 35 33 33 33 32 30 28 27 27 26 26 24 22 21 20 20 20 19 18 18 17 17 17 17 18 18 17 17 15 14 14 14 13 13 12 12 12 12 12 12 11 11 12 12 12 12 11 11 11 11 11 10 10 9 9 8 9 9 9 10 9 10 11 11 11 10 9 8 8 9 8 8 7 7 6 6 6 7 6 6 6
34 35 35 36 36 34 33 33 32 31 30 29 28 27 26 25 24 22 21 21 21 20 19 18 18 18 17 18 18 18 18 17 16 15 15 14 13 13 13 12 12 12 12 12 11 12 12 12 13 13 13 13 12 12 12 11 10 10 10 10 10 9 9 10 10 10 11 11 11 12 11 10 10 11 9 9 8 8 7 7 7 7 6 6 5
30 32 34 35 35 35 34 33 33 32 31 30 29 28 26 25 24 23 21 21 22 22 21 20 19 18 18 18 18 18 18 18 17 16 15 15 14 14 14 13 13 12 12 12 12 12 12 13 13 13 13 13 13 12 12 11 11 11 11 11 11 11 11 11 10 10 11 11 11 11 11 11 12 12 11 10 10 10 9 8 7 6 6 6 5
28 29 31 33 34 34 35 34 34 34 33 31 29 27 26 25 25 24 22 22 22 22 22 21 21 20 19 19 19 19 19 18 18 17 16 16 15 15 15 15 14 13 12 12 12 12 12 12 13 13 14 14 13 13 12 12 12 12 12 12 12 13 12 12 12 12 11 12 11 11 12 12 12 12 12 11 11 10 9 9 8 7 6 6 5
26 27 28 30 32 34 35 35 35 34 33 32 29 27 27 26 25 25 24 23 22 22 23 23 22 22 21 20 20 20 19 19 18 17 17 17 16 15 15 15 15 13 13 13 12 12 12 13 13 13 14 15 14 14 13 12 12 13 13 13 13 13 14 14 14 13 13 13 12 12 13 13 13 13 12 12 12 11 10 10 9 8 8 7 6
23 25 26 26 29 32 34 35 36 35 34 33 31 29 29 28 27 26 25 23 22 22 23 23 24 24 23 21 21 21 20 20 19 19 19 18 18 17 16 16 15 14 14 14 13 12 12 13 13 14 14 15 15 15 14 14 13 14 14 13 13 13 14 14 14 14 13 14 13 13 14 13 14 14 13 13 13 12 12 11 11 11 10 9 9
19 22 24 25 27 29 32 35 36 35 35 34 33 32 31 30 28 28 27 25 24 24 23 23 23 25 24 23 22 21 21 21 21 20 20 20 19 18 17 17 16 15 15 15 14 13 12 12 13 14 14 15 15 14 14 14 14 15 15 15 14 14 14 15 14 14 14 14 14 14 14 14 14 14 14 14 14 14 13 12 13 13 12 11 11
19 22 24 26 26 27 29 32 33 34 34 34 34 33 32 32 30 29 28 27 26 25 24 23 23 24 25 24 23 22 22 22 22 22 22 21 20 19 19 18 17 16 16 16 16 15 14 13 13 14 15 15 15 15 15 15 16 16 16 16 16 15 15 15 14 14 14 14 15 14 14 13 14 14 15 14 14 13 13 13 13 14 14 14 13
19 22 25 26 27 26 26 29 31 32 33 34 34 34 33 33 32 31 31 30 28 26 25 24 23 23 24 24 23 22 22 22 23 23 23 23 21 20 20 19 18 18 17 17 17 16 16 15 14 15 15 16 16 15 16 16 17 17 17 17 17 16 16 15 15 15 15 14 14 14 14 13 14 15 15 15 14 12 12 12 12 13 14 13 12
15 18 21 24 28 27 24 26 29 31 32 33 33 34 33 33 33 33 33 32 30 29 27 26 25 24 23 23 23 23 22 22 23 24 24 24 23 21 21 21 20 19 18 18 17 17 17 17 16 16 16 16 17 16 16 17 17 17 17 17 17 16 16 16 16 15 15 14 14 14 14 13 13 14 14 14 14 13 13 13 12 13 12 11 10
11 14 15 18 24 25 23 22 25 28 29 31 32 32 33 33 33 34 33 33 32 31 29 28 27 25 24 24 24 23 23 23 23 24 25 24 23 22 22 22 21 20 19 19 18 18 18 18 18 18 17 17 17 17 17 16 16 16 17 17 16 16 16 16 16 16 15 15 15 15 15 13 13 14 14 14 14 14 14 14 13 13 12 10 10
8 12 12 13 15 17 18 17 19 23 26 28 28 29 30 32 33 33 33 33 32 31 30 28 28 27 27 27 26 25 24 24 24 25 25 24 24 23 22 22 21 21 20 19 19 20 20 20 19 18 17 17 17 17 17 16 16 16 17 17 17 16 16 16 17 17 15 15 15 16 15 14 14 15 15 14 14 13 14 14 13 12 12 11 11
5 8 11 12 11 12 14 12 11 13 17 19 22 25 27 29 31 32 32 32 32 32 30 29 28 28 29 29 29 27 26 25 24 24 24 24 24 23 23 22 22 21 20 19 20 20 20 20 19 18 17 16 16 16 17 16 16 17 17 17 17 17 17 17 17 17 16 15 16 16 16 16 16 16 15 14 14 13 13 13 13 13 14 14 14
6 6 7 8 8 9 11 12 11 11 11 12 15 19 21 23 26 28 30 32 32 32 30 28 28 29 31 30 29 28 27 26 25 24 24 25 25 24 23 23 23 22 20 20 20 21 20 19 19 18 17 17 17 17 17 17 17 17 17 17 17 18 18 18 18 18 17 16 16 16 16 16 17 17 16 15 14 13 14 14 14 15 15 15 14
8 8 7 5 4 5 7 11 15 18 17 15 15 16 17 19 22 24 27 31 32 32 31 30 29 30 32 31 29 29 29 28 27 26 25 25 25 25 24 24 23 23 21 21 21 20 19 19 19 18 17 17 18 18 18 18 18 17 17 17 17 18 18 18 19 18 18 17 17 17 17 17 18 18 17 15 14 14 14 14 15 15 15 15 13
12 12 11 9 7 3 2 6 11 15 18 18 18 19 19 20 21 22 26 29 31 31 31 31 31 32 33 32 29 28 28 29 29 27 26 26 26 25 25 24 24 23 22 22 21 21 20 20 19 19 18 18 18 18 19 18 18 17 17 18 18 18 18 18 18 18 18 18 18 18 18 18 18 18 17 16 16 15 15 16 16 16 16 15 14
15 15 14 13 11 9 5 2 3 7 11 14 15 17 19 20 21 23 25 26 27 29 30 31 32 32 34 34 31 29 29 29 29 28 27 26 26 26 26 25 25 24 23 23 22 21 21 21 21 20 19 18 18 19 18 17 16 16 17 18 19 19 18 18 18 19 19 19 19 19 19 20 19 18 18 18 17 17 17 17 17 17 16 16 16
18 18 17 15 13 12 10 7 6 3 5 8 10 12 14 15 18 21 24 23 22 24 27 30 31 31 32 32 31 30 32 32 31 30 29 27 26 26 26 26 26 25 25 24 23 23 23 22 22 22 21 20 20 19 17 16 15 15 16 17 19 19 19 19 19 19 20 20 20 20 20 20 20 20 20 20 19 18 18 18 18 18 17 17 17
20 20 20 19 17 15 13 11 10 8 6 5 7 8 9 11 12 15 19 20 21 22 24 27 29 31 32 32 32 32 35 36 34 31 29 28 27 26 26 27 27 27 26 25 25 25 25 24 24 23 23 22 21 20 18 17 16 15 15 16 18 18 19 19 20 20 21 21 21 21 20 20 20 21 21 21 20 20 19 19 19 19 18 17 17
21 22 22 22 21 19 16 14 13 12 11 10 8 6 6 8 9 10 12 14 18 20 22 25 27 30 33 35 35 35 36 37 37 34 30 29 28 27 27 27 27 27 27 26 26 26 26 26 25 25 24 24 23 21 19 18 17 17 17 18 19 19 19 19 20 20 21 21 21 21 21 20 20 21 22 22 22 22 21 19 19 20 20 18 17
22 23 23 23 23 22 20 17 15 13 13 12 11 8 6 6 7 9 10 12 14 16 18 21 24 28 32 33 34 36 36 36 37 34 30 28 28 28 28 27 26 26 26 26 27 26 27 27 27 26 26 25 24 23 21 19 19 19 19 20 20 20 19 20 20 21 21 21 22 22 22 21 22 22 23 22 22 23 23 21 20 21 21 20 19
22 22 23 23 24 23 22 21 19 17 15 14 13 9 7 7 7 8 10 11 13 16 18 20 23 26 29 30 32 34 34 34 35 34 31 29 29 28 27 26 26 26 27 26 25 25 26 26 27 28 27 26 26 25 23 22 21 21 21 22 22 21 21 22 22 21 21 21 21 22 22 22 22 22 22 22 23 23 23 22 21 20 20 20 19
20 20 22 23 23 24 23 23 22 21 20 20 17 12 8 6 6 7 8 9 10 12 15 18 22 26 27 28 29 30 30 31 32 31 30 28 26 23 22 25 28 28 27 25 23 24 26 26 27 29 29 29 29 28 26 24 24 24 24 23 24 24 23 24 24 24 23 22 22 23 23 23 23 22 21 21 22 23 22 21 20 20 20 20 19
17 18 19 20 21 21 22 21 22 23 23 22 20 15 12 10 9 8 7 7 8 8 8 10 15 21 24 24 25 26 27 27 26 24 23 22 21 19 20 23 25 25 24 22 20 21 23 23 24 27 29 30 30 29 28 26 24 23 24 24 25 26 26 26 26 26 26 25 24 24 25 25 25 24 23 21 22 23 24 23 21 20 20 20 19
15 16 17 18 18 19 20 20 22 23 23 22 20 17 15 16 16 16 14 11 9 8 8 7 4 3 6 9 10 11 14 16 17 15 14 13 13 15 17 17 17 16 17 17 16 16 17 17 18 21 23 26 28 29 28 26 23 20 20 21 23 25 27 28 28 28 28 28 28 28 28 27 27 26 25 24 24 25 27 27 25 23 22 21 21
14 15 15 16 16 16 18 20 22 22 22 21 20 20 20 21 22 22 22 22 20 15 12 11 10 9 9 10 8 6 6 8 8 8 9 9 9 10 11 11 11 12 13 14 14 14 15 16 17 17 17 19 21 22 22 23 22 21 20 21 22 25 27 27 28 29 29 30 31 32 31 31 31 29 28 27 26 27 29 30 29 27 24 23 23
12 13 13 13 13 15 17 21 22 21 20 19 19 19 22 24 24 25 26 26 24 20 17 16 15 13 12 11 10 9 8 8 8 6 4 5 6 8 9 10 10 11 12 14 14 13 13 14 15 17 17 17 18 19 19 20 22 23 24 24 25 27 28 29 29 30 31 32 34 34 34 34 34 33 31 30 28 29 30 32 32 30 28 26 26
11 12 12 12 13 15 17 19 20 20 20 19 18 18 21 23 23 25 27 25 22 21 20 20 19 18 16 15 14 13 12 12 10 7 3 0 2 3 5 8 9 10 11 14 15 15 16 17 18 19 20 19 20 20 21 22 23 24 26 27 28 29 30 31 32 33 33 34 35 36 36 36 35 35 34 32 31 31 31 33 34 33 30 29 29
10 11 12 12 13 14 16 17 17 17 18 18 18 18 20 22 22 24 23 21 20 19 19 20 20 20 19 18 17 17 16 16 15 13 9 5 4 3 2 2 5 6 8 10 13 15 17 19 20 21 21 21 21 21 21 23 24 25 26 27 28 29 30 31 32 34 35 35 36 37 38 37 37 37 35 34 33 32 31 31 33 33 31 30 31
11 13 14 15 15 16 17 17 17 17 17 17 17 18 19 20 22 21 20 18 18 18 17 18 19 19 19 18 18 17 17 16 16 15 13 11 9 7 5 3 3 3 4 6 8 10 12 14 16 16 17 17 16 17 17 18 20 22 23 24 25 26 27 29 30 32 33 33 34 35 36 36 38 38 37 36 35 33 30 30 31 31 29 29 29
12 14 15 15 16 17 17 17 17 17 17 17 17 16 17 19 20 19 17 17 17 16 16 17 18 19 19 19 18 17 16 16 15 14 12 11 11 10 9 7 5 2 2 4 6 8 9 9 10 10 10 10 10 11 12 12 14 15 17 18 18 19 20 22 23 24 26 27 28 30 31 33 34 35 36 36 35 34 32 31 31 31 30 29 27
13 14 15 15 16 16 16 17 18 18 17 17 16 15 15 17 17 16 15 15 15 15 15 16 17 18 18 19 18 18 17 16 15 14 13 12 11 10 10 10 9 6 3 1 4 6 7 7 7 7 6 6 6 5 4 4 5 5 7 8 9 11 12 12 13 16 17 19 21 23 26 29 32 33 34 34 32 30 29 29 30 33 34 33 29
14 15 15 15 15 15 16 16 17 18 18 18 17 16 15 15 15 14 14 14 13 13 14 15 15 16 16 16 16 17 17 17 15 14 14 13 12 11 11 10 10 10 8 6 4 3 3 2 1 1 1 1 3 4 5 4 4 5 5 6 7 8 9 8 9 11 11 12 14 16 18 20 24 28 30 29 27 24 23 25 28 32 34 32 28
14 13 13 13 12 13 14 15 16 17 18 18 18 17 15 14 13 13 13 12 12 12 13 14 14 15 14 15 15 16 17 17 17 16 15 14 12 12 10 9 10 10 11 10 9 7 8 7 7 8 9 8 8 8 8 7 7 8 8 9 9 10 10 9 10 10 10 10 11 13 15 17 17 17 19 20 21 22 23 26 28 29 29 28 25
12 11 10 10 10 11 11 12 13 15 16 16 17 16 15 14 12 12 12 12 12 12 12 13 13 13 13 14 15 15 16 16 17 17 16 15 13 12 11 10 11 11 11 11 10 9 9 10 10 10 10 9 8 7 6 5 6 7 8 9 10 11 10 10 10 10 10 10 10 12 15 17 14 11 11 13 16 20 22 23 22 22 23 21 20
10 10 10 10 10 10 10 10 11 11 12 13 14 14 14 13 12 12 12 11 12 12 12 12 12 12 12 13 13 13 14 15 16 16 16 15 14 13 12 12 12 12 11 11 10 8 8 8 7 6 6 5 5 5 6 7 8 9 9 9 10 10 10 10 10 9 10 10 10 10 12 14 12 8 5 5 7 9 12 13 13 14 13 13 15
7 8 8 9 10 10 10 10 9 9 9 10 11 12 12 13 12 12 12 12 12 11 11 11 11 11 10 10 10 11 11 12 14 15 15 15 14 14 12 12 12 12 12 11 9 7 6 4 3 4 5 6 7 8 9 10 11 11 11 11 10 9 8 8 8 8 8 9 9 7 7 8 8 6 3 3 2 0 2 5 8 10 11 12 14
6 7 7 8 8 9 10 10 9 8 8 8 8 9 10 10 11 11 11 11 11 10 10 10 10 10 9 9 8 8 9 10 11 12 12 12 13 13 12 12 12 12 12 12 11 9 8 7 6 6 6 7 7 7 7 8 8 9 9 9 8 7 6 6 6 6 6 7 7 5 4 4 4 3 3 2 1 1 3 6 9 10 12 14 15
Wind_Direction
212 212 213 214 216 220 226 228 222 218 218 213 206 200 185 180 185 188 181 176 176 176 174 171 169 167 168 169 168 167 165 162 161 159 162 167 169 169 169 169 171 173 175 174 172 171 170 169 167 170 171 166 167 171 181 198 212 223 233 271 311 338 353 357 354 344 311 327 342 345 323 217 212 70 51 36 31 23 23 26 18 29 71 79 122
217 219 220 222 226 227 228 227 223 217 215 211 207 204 193 186 186 190 187 182 180 179 178 177 175 174 173 172 171 170 170 167 165 162 164 170 173 174 173 173 175 178 178 176 172 170 168 165 164 170 173 166 162 170 190 211 224 232 239 261 290 326 347 346 352 16 25 348 357 4 16 149 140 73 54 28 24 12 8 12 358 221 186 211 192
221 223 225 227 228 230 230 227 224 219 216 215 209 205 201 194 189 191 191 186 183 182 181 180 178 177 175 174 174 174 173 170 166 166 168 174 179 181 181 180 181 182 181 178 173 171 169 165 165 173 178 170 166 177 193 208 218 228 234 247 283 329 344 340 344 15 17 357 12 21 42 69 73 67 43 22 19 11 7 359 328 224 225 231 210
221 222 224 227 229 230 231 229 225 218 216 216 210 206 204 200 195 193 192 190 188 184 183 183 179 176 176 176 179 180 178 174 170 171 173 177 184 189 190 189 188 189 188 184 179 176 175 173 173 177 183 179 179 190 194 200 203 206 218 234 273 327 341 338 335 350 357 5 22 28 43 50 40 16 14 14 13 8 1 352 304 234 235 232 223
222 221 221 226 229 229 230 231 228 218 214 216 213 209 207 203 199 198 196 193 191 187 184 183 181 179 178 178 182 184 183 182 179 180 181 182 186 192 195 196 194 194 196 191 183 179 181 186 183 182 190 190 189 193 192 192 190 193 207 229 260 305 328 337 343 350 0 19 29 33 44 42 21 359 1 9 6 357 348 344 307 233 243 246 234
224 224 223 226 228 229 231 232 230 222 215 216 216 212 210 206 202 201 200 195 193 191 188 187 186 185 186 186 187 188 188 188 186 186 188 188 189 192 195 197 196 196 197 191 184 182 185 195 194 190 198 199 196 195 194 191 187 194 209 225 245 274 307 332 2 7 10 24 31 41 50 40 26 12 3 355 347 349 347 344 333 245 234 250 252
225 227 226 227 228 229 231 231 231 226 218 215 216 213 211 208 203 202 202 199 197 195 192 193 193 193 195 195 194 192 191 189 187 188 190 190 192 194 195 197 197 197 195 190 188 187 188 197 203 201 203 205 205 202 202 201 195 201 213 221 232 250 278 303 347 16 16 16 18 33 38 28 24 20 14 356 343 347 350 350 345 313 253 260 265
224 226 227 228 230 230 230 229 229 228 223 217 215 214 211 207 203 202 204 202 200 201 199 199 200 200 199 197 196 194 191 187 186 186 186 188 191 195 198 200 200 199 196 193 193 193 194 200 207 212 212 213 211 211 214 212 206 210 218 223 230 241 254 268 286 323 355 352 355 5 5 5 10 15 14 6 355 343 344 355 354 341 330 308 291
225 227 228 228 230 231 231 229 228 228 226 220 217 216 211 206 203 202 204 203 202 204 205 205 205 204 202 198 195 193 188 183 184 185 185 188 193 197 201 204 205 205 202 200 200 200 203 209 215 217 220 221 215 215 220 218 215 218 224 230 235 240 245 252 263 272 279 293 309 323 330 337 344 344 344 347 343 329 330 343 345 347 352 338 324
227 229 230 230 230 231 232 232 230 229 228 223 219 217 212 207 205 203 203 203 203 204 207 209 209 206 204 201 196 192 187 184 186 190 192 195 199 201 204 207 210 212 212 212 211 211 212 216 221 220 220 224 219 217 220 219 220 223 230 238 241 243 244 246 254 261 263 268 274 282 294 307 314 317 316 318 318 313 311 316 326 335 336 333 328
228 228 230 232 232 232 232 232 231 230 230 226 220 218 215 209 207 206 203 203 203 204 207 210 211 209 207 204 200 196 192 191 193 195 199 202 202 204 208 211 215 218 220 221 219 219 221 221 224 225 224 226 224 220 219 219 224 231 238 243 245 247 248 246 248 255 259 260 263 264 269 286 287 283 284 288 293 299 300 305 313 314 313 316 311
227 227 229 231 230 230 230 230 229 229 230 228 223 219 216 213 210 207 204 201 201 203 207 211 214 213 212 210 208 203 200 200 200 201 205 206 204 204 207 212 218 221 224 226 225 224 225 225 227 230 229 230 229 225 221 221 228 237 244 247 248 250 253 252 249 251 255 256 260 264 268 279 280 279 283 287 288 285 289 299 305 306 310 312 307
225 226 227 228 228 228 228 228 227 228 228 227 225 222 218 215 213 210 205 200 199 200 205 211 216 217 217 217 214 210 208 206 206 207 209 210 208 208 210 214 220 225 229 230 230 231 231 230 232 234 234 236 236 231 226 227 233 239 243 246 250 253 257 257 253 252 253 252 255 262 268 275 278 283 286 288 291 291 293 298 300 307 312 311 313
222 223 225 226 228 229 228 228 227 227 226 226 225 223 220 216 214 213 209 204 202 202 204 209 215 219 220 222 221 217 214 210 209 212 214 214 214 215 218 223 228 233 235 236 237 238 238 235 234 235 235 236 239 237 233 234 238 239 239 245 252 255 256 256 256 256 256 254 254 257 263 269 272 278 282 284 287 290 293 295 299 310 313 312 318
218 220 222 225 227 228 229 230 229 227 226 226 225 223 222 218 216 216 213 209 207 206 207 210 214 217 220 223 225 225 222 218 215 216 218 220 221 224 227 232 238 242 242 240 239 239 238 235 235 234 233 234 236 236 235 239 243 242 242 247 253 254 255 254 254 257 257 256 256 257 259 263 269 273 276 277 278 279 284 287 296 308 312 314 319
214 216 219 222 224 226 229 231 229 227 226 227 226 225 224 221 217 217 216 214 212 211 212 214 215 217 219 221 224 227 228 227 224 221 222 224 227 232 235 238 243 248 247 242 239 238 237 235 237 237 234 234 236 235 235 240 245 247 248 251 253 254 254 253 253 253 254 255 255 256 257 258 263 268 270 272 275 278 281 282 289 300 307 313 317
212 216 219 221 222 223 226 230 229 227 227 228 228 228 227 224 221 219 219 218 217 217 217 218 218 219 219 220 222 225 228 230 230 227 226 227 230 235 239 240 241 246 249 245 242 242 240 237 238 239 237 236 238 237 237 240 243 247 250 251 253 255 256 255 254 252 252 253 254 257 258 258 260 264 266 268 272 275 277 276 278 284 292 300 305
217 220 221 221 222 222 224 228 229 229 229 230 231 232 231 229 226 223 222 221 220 220 220 221 222 222 221 221 221 223 226 228 230 231 231 231 232 235 237 238 238 242 245 243 242 244 242 237 235 237 238 238 239 239 237 238 241 244 247 250 252 255 258 257 255 254 254 255 257 260 263 263 262 262 261 262 266 269 270 270 270 274 281 286 291
222 224 224 224 224 224 226 227 229 231 232 233 233 233 233 232 229 227 227 226 224 223 224 225 225 225 226 224 223 224 225 227 228 230 233 234 234 233 234 235 237 240 240 237 237 239 238 235 232 233 237 239 240 240 239 238 241 243 245 249 253 255 258 258 258 258 258 259 262 265 267 268 266 264 261 259 262 264 265 268 268 269 273 276 283
225 227 226 225 225 227 228 229 231 232 233 234 234 233 234 234 231 230 230 229 229 227 228 230 229 228 229 227 225 225 226 228 229 229 231 234 235 233 232 233 235 237 238 236 233 234 235 234 232 233 237 241 242 242 241 241 243 246 248 250 252 253 254 257 259 259 261 262 263 265 267 269 268 266 264 262 261 262 263 265 267 268 269 271 274
221 228 229 227 226 227 227 228 231 232 231 232 233 233 234 235 234 233 232 231 231 230 231 233 233 232 232 229 227 227 227 228 230 230 231 233 234 233 233 234 234 235 236 235 233 233 234 235 236 236 239 242 244 242 241 242 245 248 251 252 253 252 251 253 256 258 260 262 263 265 266 268 268 267 265 263 261 262 264 267 270 271 271 271 271
216 224 229 229 228 229 227 226 228 229 229 230 232 232 234 235 235 235 235 235 234 234 235 235 236 237 235 231 229 229 228 229 230 231 232 233 233 232 232 234 235 234 233 233 234 233 234 236 238 240 242 244 244 242 240 242 245 248 251 253 254 254 252 253 256 257 258 260 264 265 265 266 267 267 266 262 259 258 261 266 270 272 273 273 270
223 225 228 228 227 226 226 225 225 226 228 230 231 233 233 234 235 235 235 236 236 236 237 238 239 240 238 234 231 230 230 230 231 232 233 235 235 232 232 233 235 236 233 232 233 234 235 237 240 243 244 245 244 242 240 243 246 248 250 252 255 257 257 256 257 257 257 258 261 263 264 265 266 267 267 263 258 255 257 261 264 268 272 271 264
217 218 221 220 221 222 222 224 225 225 229 231 231 232 234 234 236 237 238 238 238 238 239 240 241 243 242 239 236 233 232 230 231 233 234 236 237 235 233 232 233 236 236 233 233 234 235 237 240 243 245 246 246 244 244 246 248 251 252 253 255 258 258 258 258 257 257 257 258 259 262 263 264 265 265 264 260 257 258 261 262 264 267 263 256
193 198 198 198 203 209 213 220 227 227 228 231 233 235 236 237 239 240 241 241 242 241 240 240 241 243 244 242 241 239 237 233 232 234 236 237 238 238 237 233 232 234 235 235 234 234 236 237 240 243 245 247 248 247 246 247 250 253 253 254 255 256 257 258 259 258 255 254 254 255 258 260 261 262 264 263 261 258 259 261 259 258 259 256 255
146 175 190 198 196 193 197 203 218 228 229 234 240 241 241 242 243 245 245 244 244 243 243 242 243 246 248 246 245 244 242 240 237 236 237 238 238 239 238 236 233 232 233 236 236 236 238 240 242 245 247 248 248 246 245 246 250 253 253 253 254 254 255 256 257 256 254 252 252 253 255 256 256 258 261 261 260 259 258 258 256 255 255 257 259
98 124 162 190 201 205 211 215 226 242 244 241 244 246 248 250 251 252 251 249 247 245 244 244 246 248 250 250 249 248 246 245 243 241 240 240 239 239 240 238 236 233 233 235 236 237 240 243 244 244 245 245 245 244 244 244 247 249 250 251 253 254 255 255 255 254 252 251 252 253 254 254 254 255 258 260 259 257 256 256 256 256 256 258 260
75 80 92 111 148 186 212 222 229 239 244 242 239 241 247 252 255 257 255 253 252 250 247 246 246 246 247 248 249 249 248 248 247 246 243 242 242 241 240 240 238 236 236 236 237 238 240 242 242 241 241 243 244 242 242 243 244 245 248 251 253 254 255 255 253 252 251 252 253 254 254 254 255 256 257 258 257 256 257 258 257 254 253 255 258
63 64 65 64 66 80 185 222 229 235 241 244 243 243 245 246 249 252 254 254 254 252 250 249 247 246 247 249 248 248 250 250 248 247 246 245 244 242 242 241 240 238 238 237 237 237 239 240 239 238 238 240 242 241 240 240 242 245 248 251 254 254 255 255 253 251 251 253 254 255 255 255 256 257 256 255 254 254 255 255 254 250 248 251 256
61 61 60 60 57 55 49 356 270 248 246 248 250 251 250 247 245 247 250 252 252 253 254 252 249 249 251 251 249 248 250 251 250 248 246 244 243 243 242 241 240 238 238 238 238 238 240 240 238 236 236 239 242 242 239 239 242 246 249 252 253 253 253 254 253 251 251 253 255 256 257 257 257 255 253 252 253 253 253 254 252 250 249 252 256
57 55 54 54 52 50 46 32 14 335 273 263 261 259 257 254 248 245 248 250 251 253 254 253 252 253 254 252 250 250 252 253 252 250 246 243 242 243 243 242 239 238 238 237 237 238 240 240 239 237 236 238 241 240 239 241 244 248 251 253 253 252 251 251 252 253 253 254 255 256 257 259 259 256 254 253 253 253 254 254 253 251 252 255 257
52 51 51 50 47 42 37 28 19 10 352 320 289 278 280 279 269 257 254 253 252 252 253 255 255 255 255 255 253 253 255 256 256 254 248 242 238 239 243 243 240 239 239 238 237 237 238 239 239 239 237 238 238 237 236 240 244 248 251 253 254 253 253 253 254 255 257 257 257 257 257 258 259 259 258 255 253 252 251 251 253 254 253 254 257
52 52 52 52 49 45 39 32 24 15 9 2 346 321 305 296 286 276 267 260 256 254 253 255 256 255 255 255 253 253 253 254 257 257 250 243 236 235 240 245 244 242 242 242 242 241 240 239 239 239 238 237 237 236 234 238 244 247 249 252 253 253 254 257 258 259 261 262 261 260 258 258 259 259 258 257 256 256 257 255 253 254 255 255 257
53 54 53 51 50 47 44 41 35 26 17 12 7 354 330 307 290 278 273 269 266 265 263 260 258 257 256 256 256 255 251 249 252 254 253 249 241 233 235 242 245 245 244 244 245 245 245 243 241 239 238 237 240 240 239 242 248 250 252 254 254 253 254 257 260 261 262 263 263 262 261 260 259 259 259 260 260 259 260 257 253 253 255 256 257
49 50 50 48 47 46 44 43 42 40 36 29 19 2 334 314 296 281 279 278 275 275 275 271 264 260 259 258 256 254 250 245 245 248 253 254 247 239 236 239 243 245 245 245 246 247 248 248 245 242 239 237 238 239 240 246 252 253 253 254 254 254 255 258 260 262 262 263 262 261 260 260 261 261 261 262 261 259 258 256 253 251 252 254 255
44 43 44 44 43 42 42 42 41 43 43 36 26 13 357 338 318 304 299 298 297 296 291 281 270 262 258 256 254 251 247 242 240 242 246 248 245 239 235 235 238 241 244 247 250 252 252 252 250 247 243 239 236 234 235 242 252 254 251 250 251 252 253 256 260 261 261 262 261 260 260 261 263 264 263 262 260 258 255 253 252 250 249 250 252
44 42 41 41 40 40 42 44 44 43 42 37 31 24 23 25 20 8 349 326 323 336 341 317 284 264 252 247 245 242 237 231 228 230 235 240 241 236 231 232 235 239 244 250 254 253 251 253 253 251 248 245 242 238 238 246 258 259 251 249 250 251 252 255 257 260 261 261 260 259 259 261 262 262 262 262 259 253 249 246 244 245 247 248 249
46 44 40 37 37 38 42 48 49 46 43 41 39 39 45 53 56 53 50 47 44 51 59 53 16 260 213 202 206 208 204 202 203 209 218 231 240 239 240 244 244 241 242 246 251 252 251 253 255 253 250 248 247 245 246 256 270 270 259 255 256 256 256 257 259 261 262 263 263 262 261 261 261 261 260 260 258 254 249 245 240 240 245 249 251
47 43 38 34 34 38 45 51 53 50 47 44 45 49 58 64 66 67 65 62 58 58 63 67 66 72 88 98 107 116 132 152 166 185 206 221 232 236 242 252 252 244 238 238 246 254 256 257 259 260 258 254 254 253 253 260 271 276 272 267 265 263 263 262 263 265 265 266 266 267 266 265 265 264 262 260 260 258 255 249 242 237 239 246 250
47 42 37 33 34 39 46 49 51 50 49 46 46 52 61 65 66 65 64 60 56 54 56 59 60 63 72 81 88 94 103 114 123 136 184 233 254 257 258 261 260 254 246 242 247 255 259 259 261 264 265 263 263 266 266 267 271 274 273 270 268 267 266 266 266 266 266 267 267 268 269 268 267 268 266 264 262 261 259 254 247 240 237 239 244
47 44 41 37 37 41 45 47 48 49 50 49 49 56 64 66 65 62 59 56 54 54 55 59 61 62 66 71 77 81 83 84 85 87 90 305 303 293 278 269 265 261 252 248 251 256 259 259 259 261 263 263 264 268 271 272 272 271 269 268 267 265 265 266 266 266 267 268 268 269 270 270 269 269 268 266 263 260 258 254 248 244 241 240 241
51 53 53 49 46 48 48 47 47 47 48 48 49 56 64 65 63 61 58 54 51 48 49 53 57 59 60 62 64 67 69 71 71 70 67 60 51 41 8 297 276 269 261 255 254 252 251 253 255 258 262 263 264 267 270 271 272 272 272 271 269 267 266 266 267 267 268 268 270 271 271 271 270 268 266 264 262 259 257 254 249 245 242 241 243
66 63 60 56 54 53 50 48 47 45 47 48 48 52 58 61 61 59 55 51 47 42 41 44 48 50 50 50 50 52 56 62 67 69 68 66 64 60 49 21 333 294 272 267 264 255 249 250 252 255 261 268 272 274 274 275 276 276 275 274 272 270 269 268 267 268 268 269 270 271 271 272 271 269 267 264 262 260 258 254 250 246 241 239 241
70 65 61 57 54 53 51 50 49 47 47 48 47 49 53 56 56 54 52 49 45 40 40 42 43 43 43 42 41 39 39 41 44 48 52 55 55 53 48 39 26 356 246 254 267 265 259 258 257 256 261 269 274 274 273 273 274 274 275 275 273 271 269 268 268 270 272 273 274 274 274 273 272 271 269 266 263 260 257 254 252 248 243 242 243
73 68 64 59 55 54 54 52 50 49 48 48 47 47 48 49 48 46 46 45 42 40 42 43 43 43 42 41 39 38 36 33 32 32 35 38 40 41 40 37 32 30 36 282 269 269 269 269 267 263 261 259 255 252 256 266 276 284 287 285 283 280 277 275 276 277 278 279 281 281 280 276 271 268 265 263 261 258 255 256 255 249 246 246 242
78 73 67 63 61 59 59 56 53 51 49 47 46 44 44 45 43 43 44 42 39 41 44 45 45 45 43 40 38 38 37 36 35 35 35 36 38 39 38 32 28 32 42 47 31 5 9 12 343 345 46 116 135 114 98 82 58 31 360 337 324 315 312 311 306 298 293 293 296 298 298 292 279 268 262 259 259 257 255 257 255 248 245 243 235
81 78 74 70 66 63 61 57 53 50 48 46 45 44 43 42 40 41 41 40 39 43 47 47 46 44 41 40 39 38 38 40 42 43 43 42 41 41 39 37 38 43 47 50 49 48 55 65 73 75 76 80 82 78 70 61 45 25 7 355 343 331 326 325 323 322 320 318 319 322 326 323 307 283 268 260 258 258 258 255 248 239 236 234 227
83 84 81 76 69 63 58 53 49 47 45 44 44 43 43 43 41 40 39 38 40 44 46 46 45 44 44 42 41 41 41 42 43 44 44 45 45 43 38 38 43 46 47 48 50 54 65 75 80 80 79 78 74 64 48 30 11 354 346 345 340 334 328 322 322 329 332 332 337 341 343 342 334 311 288 272 260 257 255 247 234 222 218 215 211
86 88 85 78 70 63 58 53 49 46 44 44 43 42 41 42 43 45 45 42 41 42 43 43 43 45 46 45 43 42 41 41 42 43 44 46 48 46 40 37 39 42 44 47 49 52 66 79 80 70 60 53 44 22 355 340 331 324 324 329 330 331 331 324 320 324 330 338 350 354 353 357 359 349 326 303 276 256 243 225 208 201 195 186 190
100 100 91 77 67 61 56 52 49 45 43 44 44 43 43 42 42 45 49 51 49 45 42 41 42 44 45 44 41 39 37 35 35 38 42 45 47 49 46 42 40 40 40 42 40 35 39 45 23 6 7 2 351 341 333 326 322 320 321 325 323 321 323 323 320 319 327 343 354 354 357 11 21 26 30 33 34 353 194 173 173 177 169 165 177
118 115 96 72 61 55 50 48 48 45 41 40 40 40 42 43 43 43 45 47 49 47 44 40 39 39 40 38 33 29 27 25 26 31 38 41 42 46 51 50 46 43 39 37 37 34 31 26 13 0 358 357 352 342 331 327 325 324 324 327 330 330 328 322 313 314 331 348 352 346 351 22 51 68 73 76 103 182 172 151 153 161 161 162 167